Theta_e
306 307 308 307 307 305 302 300 298 299 296 297 293 295 298 303 302 302 303 302 301 301 302 302 303 303 304 304 307 305 307 308 308 310 311 311 313 313 313 313 314 315 314 314 315 320 326 317 319 324 319 318 319 320
306 307 308 308 307 307 305 304 304 300 298 297 293 294 297 303 303 302 303 303 301 300 302 303 303 303 303 304 303 304 305 305 306 309 309 309 312 313 313 318 313 319 316 319 318 319 313 316 315 315 315 317 318 318
306 306 306 306 307 306 307 306 305 305 301 299 296 294 295 302 304 303 303 304 301 301 303 306 306 304 304 304 303 301 303 305 307 306 307 309 310 307 314 313 311 311 310 315 316 314 312 312 312 313 313 314 315 317
306 306 306 306 306 305 306 307 306 306 304 302 298 294 295 302 305 304 303 304 302 302 303 308 306 306 305 305 305 305 302 303 304 304 308 310 311 309 312 310 313 312 311 313 315 313 312 312 311 311 312 312 313 316
306 305 306 307 306 305 306 307 307 306 304 301 295 294 297 303 305 305 304 304 303 303 307 306 306 306 306 306 306 306 304 303 305 307 309 310 309 310 311 310 311 308 310 313 315 312 311 311 310 311 311 312 312 314
307 306 306 307 306 306 306 306 307 307 305 302 298 295 299 304 305 305 307 304 305 304 303 307 307 307 307 308 308 308 307 306 307 309 309 309 309 309 311 310 310 309 309 309 310 309 310 311 311 311 310 311 312 313
304 305 306 306 306 306 305 306 307 307 307 305 299 295 301 306 305 307 308 306 306 305 303 306 310 308 308 309 309 309 308 308 309 309 310 310 309 309 310 312 309 308 307 307 308 309 310 312 311 310 311 312 313 314
300 303 304 305 306 306 306 305 306 306 306 305 302 298 306 306 306 307 306 306 306 305 305 306 312 310 309 310 310 308 309 309 309 309 310 310 310 310 312 308 306 307 306 307 308 308 309 309 310 311 311 312 312 313
299 300 302 303 305 305 306 305 306 305 306 306 301 304 306 306 308 307 306 306 306 305 306 308 309 310 309 308 308 309 307 310 309 310 309 309 310 312 308 306 307 307 308 309 308 308 309 309 310 311 312 312 312 313
294 299 301 302 304 304 305 305 305 305 305 306 297 306 309 307 306 307 306 304 304 306 305 307 308 309 308 309 308 308 308 310 312 311 309 310 311 309 307 306 307 308 308 309 310 310 310 310 311 311 311 312 312 313
295 297 299 302 303 304 305 305 305 304 305 303 302 302 303 304 303 308 309 309 309 309 308 309 310 310 308 310 308 306 311 310 313 312 311 311 311 310 310 309 309 309 309 309 310 310 310 310 310 311 312 312 312 313
292 296 300 301 302 304 304 305 304 303 303 302 300 299 302 305 308 309 310 310 311 310 310 311 310 309 309 307 307 308 309 310 313 310 312 310 311 309 309 309 309 310 309 308 309 310 311 312 313 312 312 313 313 313
291 294 294 294 301 304 304 303 301 304 304 302 301 302 305 308 309 310 309 310 310 309 309 309 310 309 307 307 308 309 308 312 309 313 311 311 310 309 309 308 308 309 309 310 309 309 310 311 312 313 314 314 314 313
291 292 293 298 303 304 303 302 303 303 303 302 304 307 309 310 310 311 311 309 308 308 308 309 309 310 309 309 309 309 310 309 312 313 312 311 310 310 309 309 308 308 309 309 309 311 311 311 310 311 312 312 313 315
291 293 293 297 302 302 302 303 303 303 302 302 305 307 309 308 309 309 309 308 308 309 309 309 309 308 311 309 309 309 310 312 312 313 312 311 310 310 310 309 309 308 308 308 308 308 309 310 311 311 311 310 311 313
291 294 296 299 300 300 302 303 302 303 301 302 305 309 309 309 308 308 308 308 308 309 308 308 309 310 310 310 309 309 309 310 311 312 310 310 310 310 309 309 308 308 308 308 308 308 310 309 310 311 309 308 308 308
290 295 297 296 297 298 300 300 301 303 304 306 308 307 307 307 307 306 306 307 308 308 309 308 308 309 310 310 312 308 309 310 310 309 310 310 310 309 308 309 308 308 307 307 308 308 309 310 310 310 309 308 308 309
292 295 296 297 298 298 299 301 302 303 305 307 309 309 308 308 307 307 307 307 307 307 307 308 308 309 311 312 312 310 309 310 309 308 308 309 310 309 308 308 308 307 307 307 308 308 308 309 310 310 310 309 308 308
293 293 294 296 298 298 300 300 300 303 305 307 308 308 308 307 307 307 306 306 307 307 308 308 308 309 310 309 308 307 307 308 308 308 308 310 310 309 308 308 308 307 307 307 307 307 307 307 308 308 309 308 308 306
291 294 295 298 299 299 299 301 300 303 304 308 308 307 308 307 307 307 307 307 307 307 307 308 308 307 307 307 307 307 306 308 309 308 308 308 308 309 308 308 308 308 307 306 306 306 306 306 306 307 307 308 306 304
292 295 295 296 298 299 300 302 302 302 303 304 306 307 307 307 307 307 307 307 307 306 308 306 306 305 306 306 306 307 307 308 308 308 307 307 308 308 308 308 307 307 306 306 306 306 306 306 305 307 306 307 307 305
294 294 295 295 298 298 298 300 302 301 301 303 304 305 305 306 306 306 306 306 306 306 307 306 306 306 306 305 307 308 307 308 309 308 307 306 307 307 307 307 306 306 306 306 306 305 305 305 305 306 306 307 306 305
292 293 294 296 297 297 299 301 302 302 304 304 303 305 306 306 305 304 306 306 307 306 306 306 306 306 306 305 306 308 309 308 308 308 308 307 307 307 307 307 306 305 305 306 306 305 305 305 304 304 304 304 305 305
293 294 295 295 296 299 299 302 301 303 304 306 306 306 306 306 306 306 306 306 306 306 305 305 305 305 306 307 306 306 307 308 308 308 308 307 307 307 306 305 305 305 305 305 305 305 305 304 303 303 303 303 303 303
295 295 295 296 296 298 300 301 302 304 304 305 305 306 306 305 306 306 306 306 306 305 305 305 305 306 306 307 307 307 308 308 307 307 306 307 306 305 303 303 303 304 304 304 305 304 304 303 303 302 302 300 301 302
296 296 296 297 298 299 301 301 302 303 304 304 304 304 305 306 305 306 306 305 305 304 304 305 305 306 305 305 305 306 307 307 307 307 307 306 304 303 302 301 302 303 304 304 304 303 302 302 301 300 300 299 300 300
294 296 296 296 298 299 300 301 301 303 303 303 304 305 305 306 305 305 304 304 304 303 303 303 303 305 306 305 306 306 307 307 307 306 305 304 303 303 301 301 302 303 303 303 302 302 302 301 301 299 299 297 297 299
293 294 296 296 297 298 299 300 300 300 302 302 303 304 305 304 305 304 304 304 303 302 302 302 302 303 304 305 306 307 307 306 305 305 304 303 302 302 302 302 302 300 302 302 301 301 300 300 299 298 297 296 295 296
293 294 295 296 295 296 297 298 299 298 298 299 301 301 301 301 302 303 303 302 302 301 301 301 301 302 303 304 305 306 306 305 305 304 303 303 302 302 302 302 300 301 301 300 299 299 298 297 297 296 295 295 294 293
293 294 294 295 296 296 296 296 296 297 297 298 298 299 299 300 301 301 300 300 300 300 300 301 301 302 303 303 304 304 305 305 304 303 302 302 303 302 302 302 302 301 300 299 298 298 297 296 296 295 295 294 293 293
294 294 295 295 295 295 295 296 296 296 297 297 297 298 298 299 299 299 298 298 298 298 300 300 302 302 302 302 302 303 303 302 302 302 302 302 302 301 301 301 301 300 300 299 298 297 296 296 295 294 293 293 292 292
295 295 296 296 296 295 295 296 296 297 297 298 298 298 298 298 299 294 294 296 297 297 298 298 299 300 300 301 300 298 300 299 300 301 301 300 299 299 298 298 299 299 299 298 297 296 295 295 294 293 292 291 290 290
294 294 295 295 296 296 296 296 297 298 298 299 299 299 299 299 294 290 291 292 293 295 296 296 296 297 298 299 300 298 298 298 299 299 299 298 298 297 297 297 297 298 297 296 295 294 294 292 291 290 289 288 288 287
Wind_Speed
24 24 24 24 26 27 27 26 27 29 26 22 28 27 26 18 9 8 8 12 11 8 23 15 13 17 15 15 4 12 10 2 4 3 3 3 3 4 4 5 4 5 6 4 3 5 6 17 2 4 8 8 10 11
24 24 24 25 27 29 29 29 27 27 27 22 27 28 25 18 13 9 8 11 11 14 19 23 19 18 20 22 21 5 5 8 4 3 2 3 3 3 6 2 3 1 4 2 4 4 9 4 12 11 10 10 13 15
26 26 25 26 28 29 29 31 30 28 26 26 24 28 26 18 12 11 8 11 12 13 18 6 5 6 10 11 9 5 4 4 3 5 3 2 3 2 4 4 3 5 5 1 2 5 7 7 11 12 15 14 16 15
27 26 27 28 28 29 28 28 31 31 27 28 24 27 25 17 11 10 7 7 7 7 4 3 7 13 10 12 13 16 10 5 9 9 4 3 2 3 3 2 3 5 5 7 1 6 7 2 16 19 20 17 17 17
30 29 28 28 25 27 28 28 30 31 29 27 26 27 21 14 10 10 10 8 7 4 5 13 15 4 8 11 10 7 12 15 4 4 4 3 4 4 3 4 3 5 4 4 3 6 2 12 20 20 17 21 20 20
29 31 29 27 26 25 27 29 29 31 30 28 29 26 15 15 10 5 3 2 4 8 4 3 7 4 9 6 2 4 2 6 4 4 4 4 3 6 5 3 1 6 5 7 10 18 18 16 15 8 21 22 20 19
33 29 28 27 26 25 25 29 30 31 32 31 30 23 14 7 5 4 2 3 8 4 3 5 4 2 7 4 2 2 4 3 5 5 3 6 5 7 3 4 17 17 18 19 19 17 17 8 17 20 20 20 19 17
27 28 29 26 24 24 25 27 29 32 32 30 29 21 7 2 4 3 6 5 7 1 4 3 4 4 6 5 2 4 2 3 3 5 6 6 10 6 3 17 20 18 19 15 12 17 18 19 20 17 17 18 18 17
29 28 28 27 24 24 24 25 28 30 30 29 24 10 1 2 2 5 5 8 5 4 3 2 3 4 8 3 4 2 2 2 1 2 3 5 2 3 6 18 19 19 15 19 18 20 17 16 16 16 15 15 17 17
26 23 25 27 25 24 23 24 26 28 30 23 11 3 3 3 4 8 1 3 3 4 4 4 3 3 5 4 2 3 2 2 2 3 1 1 3 8 8 13 15 16 18 18 16 16 15 15 15 16 16 16 16 17
25 23 22 24 23 22 20 22 23 26 26 16 8 4 8 7 5 4 3 4 5 4 6 6 5 5 2 3 3 1 3 1 2 3 2 1 4 10 10 13 13 17 21 20 16 14 13 14 16 17 17 15 16 17
24 21 21 23 23 18 17 19 19 19 19 21 15 14 8 1 5 4 3 4 4 2 5 3 3 4 2 1 2 2 3 2 1 2 2 2 5 13 16 17 17 16 18 23 20 15 11 10 13 14 16 16 16 16
23 21 23 24 18 13 15 13 12 20 23 14 3 3 3 3 3 5 5 4 3 5 4 2 3 1 1 2 3 2 2 1 5 2 1 2 7 12 15 16 17 18 20 19 23 21 17 14 13 15 16 15 16 16
24 21 19 19 13 14 8 10 16 18 13 3 3 4 5 5 5 4 5 3 2 5 4 4 3 3 3 3 2 2 0 1 2 1 1 3 9 12 14 15 18 20 22 22 24 18 18 19 20 16 18 17 16 16
22 19 17 15 10 6 13 15 15 15 5 5 4 5 6 9 5 5 7 5 6 4 4 3 2 4 3 3 2 2 3 3 3 2 2 5 9 10 11 14 16 18 19 21 21 22 21 19 18 20 22 20 19 17
18 19 11 8 10 14 16 16 17 9 5 6 8 6 8 6 8 9 12 12 7 6 4 4 3 3 3 2 2 4 2 3 2 3 5 5 6 6 8 12 13 16 17 19 19 20 18 19 20 21 20 20 22 21
15 8 15 18 21 20 15 19 6 6 6 6 8 14 17 12 10 9 7 11 9 9 5 2 4 3 2 3 2 3 4 3 4 4 5 5 4 3 6 9 11 14 15 17 18 18 17 17 17 20 25 29 22 21
13 13 15 16 18 20 13 5 6 6 8 12 8 12 13 13 13 12 10 10 11 12 8 7 4 7 4 3 3 4 9 8 5 5 5 5 5 3 3 6 9 10 14 15 15 16 16 17 18 17 20 23 25 26
16 17 14 16 14 13 5 4 6 6 10 12 15 15 13 14 14 15 14 12 14 13 7 5 7 7 9 8 9 9 6 7 7 4 4 5 4 4 3 4 4 6 10 13 15 17 16 17 18 17 17 23 25 28
14 13 7 8 7 4 5 5 5 7 5 5 8 10 12 12 10 10 12 13 14 11 10 6 12 17 16 13 11 12 11 6 7 7 5 5 6 5 4 3 3 5 8 10 11 13 17 18 18 18 16 18 22 27
15 6 10 8 8 8 6 5 7 7 8 7 9 8 9 8 11 12 13 13 15 10 8 19 22 23 21 20 18 13 13 12 11 9 5 5 4 4 4 3 3 5 7 8 10 11 13 16 20 17 14 14 15 21
10 11 11 10 6 6 9 10 8 5 6 10 11 13 12 10 15 15 11 13 10 20 20 18 18 19 18 18 17 17 15 14 13 10 8 6 6 5 4 3 4 5 7 7 8 9 10 12 15 14 18 14 16 19
10 12 8 8 8 7 8 8 7 6 5 4 4 4 5 4 4 5 5 8 9 10 11 11 12 13 17 16 14 15 14 15 15 13 10 8 7 6 4 4 4 5 6 6 6 6 8 10 11 13 15 15 15 16
9 6 5 6 12 5 5 5 6 5 7 8 5 7 7 5 3 5 6 10 14 7 8 9 9 11 11 12 16 15 15 16 16 13 11 9 8 5 4 3 3 3 4 6 5 5 6 7 10 11 12 14 14 16
5 6 6 8 7 5 5 5 8 7 10 11 13 11 4 4 4 5 5 6 1 4 6 7 6 7 10 11 10 10 11 14 16 14 10 10 7 5 4 2 2 2 3 4 3 4 6 7 8 9 11 14 15 14
8 8 8 6 4 7 7 6 7 12 13 14 6 6 3 4 5 5 3 2 2 4 7 8 7 6 8 11 12 10 11 14 15 13 13 12 9 6 4 2 3 3 1 1 2 3 5 7 8 9 10 11 12 13
7 9 12 14 9 7 6 9 13 6 6 5 5 5 4 5 6 1 5 3 3 4 7 9 11 9 8 7 8 9 11 14 13 12 13 11 9 7 5 4 4 4 4 3 2 3 5 5 6 8 8 10 12 12
14 13 18 21 16 14 13 13 11 5 4 6 3 5 4 4 2 2 3 1 5 8 10 11 12 11 8 5 5 10 14 14 14 14 12 10 10 8 7 7 7 6 6 5 1 2 3 4 5 5 6 7 9 10
12 17 17 15 22 21 18 13 12 19 21 20 11 12 14 17 12 10 10 10 13 16 16 15 12 11 8 5 5 9 15 16 17 18 16 13 12 10 10 9 8 8 6 4 2 1 3 2 3 4 5 6 7 8
24 21 21 23 19 19 28 27 23 22 21 18 19 20 20 20 11 7 10 12 12 13 15 16 16 13 10 8 7 10 11 13 15 15 16 14 13 12 13 12 11 9 8 6 4 2 1 2 3 4 4 5 6 7
20 18 13 18 18 26 25 24 24 26 25 24 23 22 23 22 12 12 10 10 8 10 10 8 7 5 6 5 3 6 8 10 10 11 10 5 9 10 11 11 11 10 9 8 7 6 5 4 2 1 2 4 5 6
18 19 19 17 17 21 19 19 19 20 21 20 21 22 19 11 6 2 8 3 3 2 4 3 2 3 5 10 9 2 6 6 7 9 10 9 9 9 10 9 9 9 10 10 10 9 7 4 2 1 1 3 4 5
19 22 22 15 13 9 14 12 6 11 14 16 17 16 11 5 5 5 6 8 9 9 8 7 6 4 1 1 2 3 5 7 7 9 10 11 12 12 9 10 10 10 12 12 11 9 7 5 4 4 5 4 4 4
Wind_Direction
330 336 338 345 346 342 342 344 347 351 348 345 348 348 347 337 320 294 291 284 272 265 288 274 285 282 278 281 276 309 319 50 295 309 305 348 286 338 282 124 160 190 187 184 241 255 153 360 17 327 22 357 353 346
323 327 333 333 338 343 338 338 340 344 349 338 345 345 342 334 322 307 289 279 284 260 274 294 287 269 267 272 281 268 278 310 292 310 344 309 305 304 327 22 121 133 355 351 5 36 333 326 61 50 16 357 352 344
319 322 323 324 328 332 335 335 335 337 339 340 335 340 337 329 315 309 276 278 297 283 309 279 307 314 304 301 268 241 255 278 306 353 294 278 296 342 348 33 292 6 345 308 279 29 339 47 22 16 2 351 342 342
312 314 319 321 324 326 329 334 334 337 336 335 333 338 333 321 304 299 269 275 269 283 288 328 320 329 341 326 302 291 276 294 285 297 271 287 322 14 345 337 328 4 339 337 337 45 354 267 342 342 340 344 343 342
310 313 314 316 323 328 326 329 333 338 340 335 332 336 330 314 294 294 301 243 249 269 303 303 310 279 338 348 356 318 264 258 275 267 235 332 358 329 209 144 29 353 359 342 6 11 296 303 313 323 331 335 336 338
307 308 312 315 315 321 324 326 329 334 341 337 329 331 325 306 282 285 269 231 318 271 299 295 327 307 350 3 41 35 276 233 246 276 315 320 353 326 313 25 106 342 330 318 303 310 310 300 311 315 329 326 329 330
307 305 307 312 310 316 321 323 325 329 336 335 330 329 327 298 231 200 275 246 314 293 259 282 286 323 346 354 33 8 340 293 306 326 324 330 346 321 297 15 4 344 330 319 307 306 305 312 316 317 322 322 325 325
303 303 304 306 307 316 318 320 323 327 332 333 328 328 333 254 179 225 255 253 310 262 252 283 291 295 8 343 345 4 296 287 320 321 332 350 327 336 2 346 334 329 323 320 320 313 299 299 302 307 317 318 320 325
296 298 302 302 302 312 315 319 322 326 331 332 327 323 315 159 181 225 258 288 220 209 280 246 301 309 345 8 284 283 289 226 10 353 24 330 15 6 313 322 313 313 311 308 310 307 308 302 299 305 316 320 316 318
300 298 298 299 302 309 312 314 320 325 332 336 335 315 225 214 274 293 117 168 202 202 223 254 298 290 323 329 300 299 245 311 255 71 148 341 9 15 345 359 351 351 351 342 305 308 312 311 310 308 309 314 313 311
298 299 306 309 304 306 309 311 318 323 339 353 338 280 269 281 296 223 212 216 181 221 209 234 260 291 302 307 318 306 300 298 268 89 292 104 13 5 357 343 331 339 350 347 331 316 290 294 303 307 307 307 305 308
298 294 295 300 304 311 303 309 312 320 329 318 292 288 296 221 204 229 203 167 220 268 184 251 341 259 270 258 272 273 284 268 5 338 239 27 17 360 359 357 355 356 6 3 8 3 351 322 314 313 310 309 304 299
302 296 295 292 306 308 303 303 302 316 326 321 304 267 234 205 236 216 199 183 205 188 189 263 302 284 222 244 256 286 280 254 312 262 4 298 356 1 358 357 360 3 2 7 14 19 10 357 349 344 330 320 311 299
307 301 303 296 308 304 293 299 312 323 329 272 248 262 220 200 231 210 205 214 153 222 230 266 286 233 200 226 254 248 269 294 255 253 228 3 352 347 349 356 1 2 5 5 8 0 2 5 2 357 358 350 334 310
312 313 304 309 301 294 310 308 310 313 273 257 211 243 229 237 233 221 222 216 213 222 229 231 227 224 190 249 216 277 220 236 236 227 292 328 335 340 345 350 354 360 1 4 5 9 10 3 359 2 4 359 355 340
318 321 318 324 293 296 304 301 306 302 237 232 231 252 237 251 244 222 227 235 216 209 196 242 243 225 211 213 206 220 231 229 231 222 280 319 330 342 345 344 348 352 356 0 2 6 3 8 7 6 6 5 9 359
305 321 320 317 315 310 293 296 280 227 235 228 238 235 251 264 273 273 243 238 198 202 242 216 231 232 123 223 230 195 214 216 235 277 283 300 308 339 339 342 343 346 352 358 3 5 359 358 2 9 15 12 4 357
300 303 308 324 323 322 311 244 232 239 242 240 246 248 234 249 265 261 246 227 206 221 235 235 249 211 217 201 205 213 231 251 255 278 287 267 249 249 292 323 333 343 346 349 358 6 8 2 358 359 4 358 355 360
302 303 307 305 303 296 276 241 222 260 245 257 256 261 257 259 256 255 255 239 231 237 229 219 239 236 234 237 247 263 265 249 250 245 258 241 222 208 255 285 310 338 348 349 350 356 1 3 2 0 5 9 5 358
310 306 287 302 306 247 263 252 229 259 263 275 261 254 247 257 268 254 249 230 217 215 216 226 237 246 248 238 238 262 281 247 245 251 255 209 222 232 232 257 320 338 342 347 350 353 355 355 360 4 7 13 17 18
310 303 317 304 287 237 259 262 244 246 275 261 276 267 269 253 256 251 244 227 216 231 236 241 251 253 249 252 256 254 253 236 236 249 273 260 214 231 245 241 289 320 335 343 346 352 357 356 3 5 4 357 355 353
281 286 298 294 248 241 252 236 239 274 259 261 272 259 269 267 264 258 237 216 237 242 249 257 261 256 251 246 237 237 246 233 227 229 225 222 233 242 235 240 293 319 323 336 341 347 355 357 13 5 1 5 9 10
267 274 258 231 231 233 256 218 230 227 244 241 239 248 232 227 230 186 223 228 252 266 269 271 270 263 251 246 240 231 225 216 218 221 220 225 229 235 245 243 279 305 310 329 329 343 352 355 2 9 5 3 357 5
256 237 234 230 209 251 235 225 215 247 240 235 242 255 260 252 209 236 246 255 269 288 286 284 276 261 243 238 233 233 226 215 217 214 211 216 238 224 232 256 251 274 305 315 331 349 356 353 3 2 2 6 6 5
219 227 218 236 233 225 226 231 226 229 237 244 249 257 249 210 240 247 235 258 9 354 338 334 281 261 251 235 213 215 209 209 210 216 210 208 205 197 194 207 227 252 318 329 350 8 4 2 4 5 3 5 10 12
221 217 210 217 225 215 215 233 226 241 240 246 247 247 238 227 236 240 186 165 68 33 12 359 339 310 269 250 251 226 221 207 203 206 191 192 191 196 196 245 239 198 306 12 76 28 21 18 14 15 10 7 10 18
239 230 216 222 234 241 253 254 268 272 256 240 232 219 215 227 231 166 146 113 82 24 1 353 354 339 309 277 240 226 210 189 190 196 187 179 175 178 187 186 172 174 158 136 66 13 360 3 7 13 15 2 5 10
231 242 234 230 231 236 257 262 273 265 248 243 234 213 206 222 244 110 139 137 338 327 325 325 324 324 320 291 227 188 178 173 165 157 157 168 179 173 164 159 165 170 164 170 137 74 36 17 8 15 17 15 12 8
233 236 249 252 250 256 242 245 249 255 265 277 277 276 283 299 312 290 286 299 308 312 307 302 299 296 292 257 195 188 189 184 179 182 187 189 188 189 179 177 174 166 171 202 216 275 329 8 35 28 26 35 22 23
239 243 248 248 248 249 250 254 262 268 272 275 280 281 278 278 287 310 307 308 310 305 299 292 284 272 255 230 223 209 196 199 205 210 213 217 219 204 185 183 181 182 179 175 186 225 170 76 29 33 39 33 23 27
248 255 236 236 251 258 261 264 260 261 264 264 264 264 262 267 275 276 280 291 304 301 305 285 290 223 218 202 213 234 213 207 206 213 209 195 185 184 185 186 187 189 192 196 190 177 169 161 153 105 40 36 31 43
240 241 243 246 246 253 261 262 258 260 262 257 253 249 249 237 202 132 28 18 19 349 337 279 205 195 201 195 208 250 197 201 213 221 214 181 164 169 173 180 187 196 197 187 176 168 169 184 207 168 106 89 81 74
240 246 250 261 261 258 239 242 261 255 250 247 251 251 233 188 92 39 39 40 46 46 36 28 32 38 352 229 253 197 183 164 166 179 189 193 192 191 172 167 166 173 173 165 160 162 163 156 147 138 126 112 103 100